TDRS 13 (42915 NORAD) Tracking and Keplerian Element Data

This shows tracking and keplerian element data for the satellite.

Feedback or suggestion? Click here.




ElementValue
Catalog42915
NameTDRS 13
Epoch Orbit612
Epoch Day109.86985396
Epoch Year2019
RAAN330.5926
Inclination6.2103
Eccentricity0.0016219
Argument of Perigee77.346
Mean Anonmoly101.3803
Mean Motion1.00272171
Decay Rate-1.28E-06
L11 42915U 17047A 19109.86985396 -.00000128 00000-0 00000-0 0 9996
L22 42915 6.2103 330.5926 0016219 77.3460 101.3803 1.00272171 6125

Live tracking and technical data element details for TDRS 13 (NORAD 42915). TDRS 13 can be tracked NOW for your location showing map with azimuth and elevation plus other details from your city location.

Track the satellite on the map from your city or location and see movement details for azimuth, elevation, latitude, longitude, range, height, and movement on the map or in text.







IsCatalogInMostPopularTable: catalog: 42915, numindb: 212
Update: records affected: 1



GetName: 42915 TDRS 13

Hit Count: updated at: Sat, 20 Apr 2019 20:25:42 GMT